Zurück zum Katalog

STARLINK-36611

AktivKommunikationVLEO
NORAD 67830·PAYLOAD·🇺🇸 United States

Gestartet Feb 16, 2026 von Vandenberg Space Force Base

Loading…

Nächste Überflüge (nächste 24 Stunden)

TLE

AktuellSource: CelesTrak SupGP

Epoche: Sep 15, 2026, 02:42 UTC

1 67830C 26033K   26258.11298611 -.00003702  00000+0 -13407-3 0  2589
2 67830  42.9998 277.7627 0001310 264.3249 268.1756 15.27585035    17

Verfolge STARLINK-36611 in Echtzeit mit AllMySat

Download on the App Store